Total_Precipitation_Accumulation
1.74 1.81 1.89 1.98 2.15 2.35 2.54 2.63 2.55 2.58 2.61 2.56 2.41 2.34 2.28 2.21 2.21 2.27 2.26 2.31 2.36 2.37 2.38 2.33 2.17 2.05 2.12 2.13 2.15 2.21 2.28 2.40 2.33 1.74 1.48 1.45 1.50 1.46 1.45 1.34 1.26 1.24 1.20
1.76 1.77 1.82 1.88 1.94 2.08 2.20 2.41 2.46 2.54 2.54 2.56 2.48 2.35 2.25 2.14 2.09 2.10 2.06 2.04 2.05 2.07 2.08 2.14 2.09 1.98 1.96 2.00 2.06 2.02 1.96 1.95 2.03 1.84 1.50 1.41 1.37 1.29 1.30 1.31 1.24 1.18 1.11
1.74 1.81 1.80 1.77 1.77 1.84 1.98 2.15 2.24 2.31 2.35 2.39 2.48 2.40 2.25 2.14 2.03 1.98 1.92 1.89 1.88 1.83 1.83 1.90 1.94 1.97 1.97 1.93 1.94 1.91 1.85 1.82 1.88 1.91 1.61 1.40 1.36 1.28 1.28 1.26 1.21 1.18 1.10
1.69 1.80 1.84 1.80 1.76 1.73 1.84 1.98 2.09 2.13 2.20 2.20 2.27 2.36 2.36 2.29 2.17 2.05 1.97 1.91 1.87 1.81 1.77 1.82 1.82 1.80 1.76 1.73 1.79 1.75 1.76 1.83 1.84 1.90 1.80 1.61 1.49 1.37 1.38 1.38 1.35 1.21 1.15
1.58 1.76 1.82 1.86 1.93 1.95 1.91 1.93 1.97 2.00 2.08 2.10 2.13 2.24 2.28 2.32 2.29 2.19 2.08 2.01 1.98 1.95 1.86 1.83 1.82 1.86 1.76 1.69 1.70 1.71 1.75 1.87 1.94 1.98 1.87 1.68 1.55 1.51 1.44 1.30 1.34 1.31 1.24
1.41 1.56 1.66 1.76 1.89 2.05 2.09 2.06 2.05 2.00 2.00 2.07 2.09 2.16 2.21 2.21 2.45 2.44 2.23 2.14 2.07 1.95 1.84 1.72 1.73 1.85 1.82 1.80 1.76 1.73 1.80 1.95 2.04 2.05 1.91 1.67 1.39 1.32 1.38 1.51 1.62 1.77 1.70
1.28 1.34 1.46 1.63 1.72 1.85 2.06 2.18 2.15 2.12 2.14 2.15 2.20 2.24 2.25 2.35 2.46 2.28 2.24 2.07 2.04 1.93 1.78 1.67 1.63 1.62 1.72 1.58 1.64 1.71 1.70 1.79 1.86 1.85 1.78 1.45 1.27 1.23 1.51 1.77 1.79 1.81 1.61
1.26 1.33 1.46 1.56 1.63 1.76 1.96 2.15 2.25 2.26 2.33 2.33 2.31 2.31 2.29 2.32 2.36 2.22 2.20 2.01 1.92 1.81 1.66 1.52 1.48 1.47 1.52 1.63 1.72 1.80 1.66 1.53 1.47 1.38 1.34 1.27 1.25 1.34 1.64 1.97 2.14 2.20 1.93
1.19 1.28 1.37 1.51 1.60 1.69 1.86 2.04 2.16 2.23 2.32 2.37 2.28 2.20 2.11 2.10 2.16 2.04 2.05 1.93 1.93 1.80 1.67 1.57 1.50 1.40 1.55 1.78 1.87 1.89 1.69 1.48 1.44 1.45 1.49 1.48 1.57 1.67 1.79 2.16 2.46 2.63 2.37
1.21 1.25 1.27 1.39 1.53 1.62 1.73 1.88 2.03 2.12 2.15 2.13 2.08 2.01 1.92 1.88 2.00 1.90 1.92 1.92 1.93 1.79 1.68 1.62 1.68 1.58 1.69 1.85 1.81 1.84 1.73 1.45 1.35 1.35 1.37 1.39 1.31 1.35 1.60 1.78 2.25 2.77 2.47
1.24 1.27 1.28 1.33 1.47 1.57 1.58 1.63 1.76 1.84 1.85 1.84 1.78 1.78 1.77 1.79 1.86 1.79 1.78 1.80 1.86 1.84 1.77 1.65 1.62 1.82 1.88 1.92 1.81 1.62 1.61 1.64 1.53 1.45 1.41 1.39 1.38 1.35 1.34 1.37 1.67 2.44 2.82
1.24 1.27 1.33 1.38 1.42 1.48 1.48 1.47 1.50 1.56 1.63 1.66 1.59 1.59 1.65 1.71 1.78 1.81 1.82 1.85 1.88 1.82 1.71 1.53 1.56 1.85 1.87 1.84 1.70 1.70 1.81 1.75 1.59 1.62 1.61 1.55 1.47 1.42 1.39 1.39 1.44 1.63 1.98
1.26 1.28 1.32 1.35 1.39 1.45 1.47 1.44 1.45 1.50 1.55 1.62 1.53 1.49 1.50 1.50 1.60 1.79 1.82 1.87 1.88 1.75 1.66 1.71 1.75 1.79 1.75 1.71 1.76 1.76 1.70 1.60 1.68 1.79 1.69 1.52 1.40 1.40 1.45 1.53 1.56 1.56 1.65
1.24 1.27 1.30 1.29 1.34 1.40 1.45 1.46 1.48 1.56 1.54 1.51 1.46 1.41 1.38 1.36 1.35 1.47 1.66 1.75 1.82 1.77 1.77 1.82 1.78 1.72 1.71 1.71 1.80 1.77 1.62 1.61 1.78 1.82 1.67 1.54 1.51 1.58 1.61 1.66 1.84 1.88 2.01
1.16 1.20 1.23 1.27 1.32 1.42 1.48 1.55 1.60 1.63 1.67 1.68 1.53 1.41 1.40 1.42 1.41 1.56 1.66 1.68 1.76 1.86 1.89 1.81 1.73 1.69 1.70 1.67 1.61 1.60 1.63 1.73 1.82 1.73 1.74 1.74 1.74 1.83 1.88 1.92 2.09 2.20 2.24
1.13 1.14 1.20 1.24 1.32 1.39 1.45 1.55 1.67 1.68 1.68 1.66 1.64 1.55 1.47 1.49 1.56 1.62 1.66 1.75 1.88 1.97 1.97 1.88 1.73 1.61 1.59 1.57 1.55 1.54 1.57 1.65 1.75 1.86 1.92 1.92 1.97 2.04 2.12 2.14 2.28 2.41 2.29
1.12 1.16 1.20 1.23 1.29 1.36 1.35 1.37 1.49 1.54 1.51 1.54 1.58 1.56 1.54 1.54 1.55 1.60 1.70 1.76 1.76 1.79 1.76 1.68 1.59 1.54 1.50 1.48 1.51 1.56 1.58 1.57 1.73 1.98 2.12 2.16 2.22 2.27 2.33 2.38 2.39 2.38 2.21
1.03 1.12 1.14 1.19 1.26 1.30 1.33 1.33 1.31 1.33 1.38 1.43 1.48 1.50 1.50 1.52 1.51 1.55 1.66 1.72 1.73 1.65 1.54 1.51 1.48 1.46 1.49 1.53 1.57 1.65 1.70 1.71 1.84 2.02 2.14 2.20 2.31 2.46 2.52 2.42 2.29 2.23 2.13
0.91 1.00 1.04 1.09 1.16 1.24 1.27 1.31 1.30 1.27 1.27 1.27 1.28 1.38 1.47 1.49 1.49 1.55 1.60 1.58 1.59 1.55 1.46 1.43 1.42 1.46 1.54 1.61 1.64 1.71 1.82 1.94 2.02 2.20 2.27 2.27 2.34 2.56 2.56 2.32 2.16 2.09 2.03
0.87 0.96 0.99 1.02 1.06 1.12 1.16 1.22 1.26 1.23 1.20 1.18 1.21 1.30 1.36 1.41 1.43 1.45 1.49 1.53 1.54 1.54 1.50 1.50 1.48 1.50 1.60 1.68 1.74 1.84 1.96 2.01 2.09 2.21 2.27 2.29 2.34 2.47 2.44 2.17 2.01 2.00 1.90
0.82 0.88 0.92 0.92 0.98 1.05 1.11 1.18 1.22 1.23 1.20 1.15 1.19 1.32 1.50 1.53 1.45 1.38 1.43 1.47 1.52 1.57 1.59 1.62 1.62 1.63 1.68 1.75 1.84 1.90 2.01 2.06 2.11 2.26 2.29 2.24 2.24 2.22 2.03 1.96 1.90 1.89 1.92
0.76 0.79 0.82 0.87 0.91 1.00 1.09 1.14 1.16 1.19 1.17 1.14 1.15 1.25 1.37 1.31 1.26 1.28 1.34 1.36 1.38 1.43 1.52 1.64 1.68 1.67 1.81 2.02 2.20 2.29 2.19 2.10 2.10 2.26 2.31 2.16 2.07 2.00 1.96 2.00 1.96 1.94 1.96
0.70 0.73 0.75 0.80 0.86 0.96 1.02 1.01 1.05 1.10 1.12 1.12 1.11 1.13 1.17 1.19 1.18 1.19 1.23 1.24 1.25 1.28 1.33 1.45 1.58 1.57 1.62 1.89 2.21 2.60 2.74 2.46 2.31 2.42 2.53 2.35 2.11 2.02 2.07 2.10 2.00 1.97 1.92
0.65 0.69 0.72 0.76 0.81 0.86 0.91 0.95 1.00 1.05 1.07 1.07 1.05 1.05 1.08 1.13 1.13 1.13 1.14 1.16 1.18 1.18 1.20 1.32 1.45 1.48 1.51 1.75 2.02 2.23 2.42 2.58 2.80 2.82 2.75 2.74 2.43 2.15 2.12 2.11 1.96 1.87 1.86
0.66 0.68 0.71 0.74 0.78 0.82 0.85 0.88 0.93 0.96 1.00 1.02 1.01 1.01 1.01 1.03 1.05 1.07 1.08 1.10 1.11 1.10 1.07 1.15 1.32 1.45 1.51 1.65 1.86 2.03 2.18 2.37 2.57 2.69 2.70 2.65 2.42 2.16 2.10 2.08 1.96 1.86 1.84
0.63 0.65 0.67 0.70 0.74 0.77 0.80 0.83 0.86 0.89 0.95 0.98 0.99 1.00 1.00 1.00 1.02 1.04 1.07 1.09 1.10 1.06 1.02 1.04 1.12 1.28 1.42 1.56 1.66 1.84 2.01 2.00 1.90 1.91 2.23 2.45 2.32 2.08 2.05 2.13 2.00 1.94 1.91